Weather History for Aberdeen, SD

Change the Weather History Date:

Friday, January 4, 2013

  Actual Average Record
Temperature  
Mean Temperature 12 °F 12 °F  
Max Temperature 24 °F 22 °F 54 °F (2012)
Min Temperature 0 °F 2 °F -34 °F (1912)
Degree Days  
Heating Degree Days 53 53  
Month to date heating degree days 198 212  
Since 1 July heating degree days 3622 3703  
Cooling Degree Days 0 0  
Month to date cooling degree days 0 0  
Year to date cooling degree days 0 0  
Moisture  
Dew Point 4 °F    
Average Humidity 79    
Maximum Humidity 91    
Minimum Humidity 67    
Precipitation  
Precipitation 0.00 in 0.01 in 2.00 in (1897)
Month to date precipitation T 0.07  
Year to date precipitation T 0.07  
Snow  
Snow 0.00 in - - ()
Month to date snowfall T  
Since 1 July snowfall 13.9  
Snow Depth 3.00 in    
Sea Level Pressure  
Sea Level Pressure 30.14 in    
Wind  
Wind Speed 5 mph (South)    
Max Wind Speed 13 mph    
Max Gust Speed 15 mph    
Visibility 10 miles    
Events      
T = Trace of Precipitation, MM = Missing Value Source: NWS Daily Summary

Daily Weather History Graph

Daily Weather History Graph

Search for Another Location

Airport:

Trip Planner

Search our weather history database for the weather conditions in past years. The results will help you decide how hot, cold, wet, or windy it might be!

Date:

Astronomy

Jan. 04, 2013 Rise Set
Actual Time 8:13 AM CST 5:04 PM CST
Civil Twilight 7:39 AM CST 5:38 PM CST
Nautical Twilight 7:02 AM CST 6:15 PM CST
Astronomical Twilight 6:26 AM CST 6:51 PM CST
Moon 12:01 AM CST (1/4) 11:34 AM CST (1/4)
Length of Visible Light 9h 58m
Length of Day
8h 50m
Waning Gibbous, 55% of the Moon is Illuminated
Jan 4
Waning Gibbous
Jan 4
Last Quarter
Jan 11
New
Jan 18
First Quarter
Jan 26
Full

Hourly Weather History & Observations

Time (CST) Temp. Windchill Dew Point Humidity Pressure Visibility Wind Dir Wind Speed Gust Speed Precip Events Conditions
12:53 AM 10.9 °F 2.9 °F 7.0 °F 84% 30.12 in 10.0 mi SSW 4.6 mph - N/A   Clear
1:53 AM 7.0 °F -6.6 °F 3.0 °F 84% 30.11 in 10.0 mi South 9.2 mph - N/A   Clear
2:53 AM 5.0 °F -5.6 °F 1.0 °F 84% 30.14 in 10.0 mi South 5.8 mph - N/A   Clear
3:53 AM 6.1 °F -5.6 °F 1.0 °F 80% 30.12 in 10.0 mi SSW 6.9 mph - N/A   Clear
4:53 AM 6.1 °F -4.3 °F 1.0 °F 80% 30.12 in 10.0 mi SSW 5.8 mph - N/A   Clear
5:53 AM 5.0 °F -5.6 °F -0.0 °F 80% 30.14 in 10.0 mi SW 5.8 mph - N/A   Clear
6:53 AM 5.0 °F -6.9 °F -0.0 °F 80% 30.14 in 10.0 mi SSW 6.9 mph - N/A   Clear
7:53 AM 3.9 °F - -0.9 °F 80% 30.15 in 10.0 mi Calm Calm - N/A   Clear
8:53 AM 3.9 °F - -2.0 °F 76% 30.17 in 10.0 mi Calm Calm - N/A   Clear
9:53 AM 7.0 °F - 1.0 °F 77% 30.20 in 10.0 mi Calm Calm - N/A   Clear
10:53 AM 10.9 °F 4.7 °F 5.0 °F 77% 30.20 in 10.0 mi South 3.5 mph - N/A   Clear
11:53 AM 16.0 °F 10.4 °F 7.0 °F 68% 30.18 in 10.0 mi SSW 3.5 mph - N/A   Clear
12:53 PM 19.0 °F 11.1 °F 10.0 °F 68% 30.16 in 10.0 mi South 5.8 mph - N/A   Clear
1:53 PM 21.9 °F 15.7 °F 12.9 °F 68% 30.15 in 10.0 mi South 4.6 mph - N/A   Clear
2:53 PM 23.0 °F 15.8 °F 14.0 °F 68% 30.14 in 10.0 mi South 5.8 mph - N/A   Clear
3:53 PM 19.0 °F 11.1 °F 12.9 °F 77% 30.15 in 10.0 mi SE 5.8 mph - N/A   Clear
4:53 PM 14.0 °F 5.1 °F 8.1 °F 77% 30.16 in 10.0 mi SE 5.8 mph - N/A   Clear
5:53 PM 12.0 °F 0.5 °F 7.0 °F 80% 30.15 in 10.0 mi South 8.1 mph - N/A   Clear
6:53 PM 12.0 °F 1.5 °F 7.0 °F 80% 30.14 in 10.0 mi South 6.9 mph - N/A   Clear
7:53 PM 8.6 °F - 3.2 °F 79% 30.07 in 10.0 mi Calm Calm - N/A   Clear
8:53 PM 3.9 °F -6.9 °F 1.0 °F 88% 30.13 in 10.0 mi South 5.8 mph - N/A   Clear
9:53 PM 3.0 °F -8.0 °F -0.9 °F 84% 30.11 in 10.0 mi South 5.8 mph - N/A   Clear
10:53 PM 3.0 °F -4.4 °F -0.9 °F 84% 30.10 in 10.0 mi SSW 3.5 mph - N/A   Clear
11:53 PM 1.0 °F -11.7 °F -2.9 °F 83% 30.08 in 10.0 mi SSW 6.9 mph - N/A   Clear